(187195) = 2005 SQ76

Discovered at Kitt Peak on 2005-09-24 by Spacewatch.

Orbit

Orbit type: Main Belt

Note: WebGL enabled browser required.

epoch2023-09-13.0
epoch JD2460200.5
perihelion date2022-08-03.97460
perihelion JD2459795.47460
argument of perihelion (°)45.16673
ascending node (°)172.06842
inclination (°)3.31758
eccentricity0.0810381
perihelion distance (AU)2.5725840
Tisserand w.r.t. Jupiter3.3
ΔV w.r.t. Earth (km/sec)10.1
semimajor axis (AU)2.7994457
mean anomaly (°)85.22716
mean daily motion (°/day)0.21042420
aphelion distance (AU)3.026
period (years)4.68
P-vector [x]-0.79599487
P-vector [y]-0.57040163
P-vector [z]-0.20256888
Q-vector [x]0.60525069
Q-vector [y]-0.74561758
Q-vector [z]-0.27879387
absolute magnitude16.76
phase slope0.15
uncertainty0
referenceMPEC 2023-W66
observations used349
oppositions14
arc length (days)7419
first opposition used2003
last opposition used2023
residual rms (arc-secs)0.74
perturbers coarse indicatorM-v
perturbers precise indicator003Ek
first observation date used2003-03-31.0
last observation date used2023-07-23.0
computer nameMPCLINUX
JD of orbit computation2456937.274221
perihelion JD uncertainty (days)9.3952E-05
argument of perihelion uncertainty (°)4.4987E-05
ascending node uncertainty (°)3.9714E-05
inclination uncertainty (°)4.0272E-06
eccentricity uncertainty 4.2476E-08
perihelion distance uncertainty (AU)1.1156E-07
Minimum Orbit Intersection Distances (in AU)
for orbit epoch: 2460200.5, reference: E2023-W66
Mercury2.12283
Venus1.84961
Earth1.56572
Mars0.95585
Jupiter1.93505
Saturn6.09291
Uranus15.7733
Neptune26.8135

Observations

354 total observations over interval: 2003 03 31.144540 – 2023 07 23.453128
These data are available for download (format description).

Date (UT) J2000 RA J2000 Dec Magn Location Ref
2003 03 31.144540 10 14 14.755 +10 17 12.20 20.90 V 645 – Apache Point-Sloan Digital Sky Survey MPS 192246
2003 03 31.148012 10 14 14.666 +10 17 12.87 21.75   645 – Apache Point-Sloan Digital Sky Survey MPS 192246
2005 09 24.24257 00 40 59.40 +02 59 32.3 20.8 V 691 – Steward Observatory, Kitt Peak-Spacewatch MPS 144204
2005 09 24.25993 00 40 58.60 +02 59 26.1 21.1 V 691 – Steward Observatory, Kitt Peak-Spacewatch MPS 144204
2005 09 24.27728 00 40 57.75 +02 59 20.6 21.1 V 691 – Steward Observatory, Kitt Peak-Spacewatch MPS 144204
2005 09 30.15942 00 36 25.35 +02 24 09.2 21.1 V 691 – Steward Observatory, Kitt Peak-Spacewatch MPS 144204
2005 09 30.17689 00 36 24.54 +02 24 02.8 20.8 V 691 – Steward Observatory, Kitt Peak-Spacewatch MPS 144204
2005 09 30.19437 00 36 23.71 +02 23 56.7 20.8 V 691 – Steward Observatory, Kitt Peak-Spacewatch MPS 144204
2005 10 01.24688 00 35 34.22 +02 17 36.8 20.6 V G96 – Mt. Lemmon Survey MPS 144204
2005 10 01.25367 00 35 33.86 +02 17 34.2 20.6 V G96 – Mt. Lemmon Survey MPS 144204
2005 10 01.26040 00 35 33.54 +02 17 31.7 20.5 V G96 – Mt. Lemmon Survey MPS 144204
2005 10 06.15354 00 31 44.70 +01 48 22.9 21.2 V 691 – Steward Observatory, Kitt Peak-Spacewatch MPS 144204
2005 10 06.17825 00 31 43.54 +01 48 13.9 21.4 V 691 – Steward Observatory, Kitt Peak-Spacewatch MPS 144204
2005 10 06.19548 00 31 42.73 +01 48 07.2 20.9 V 691 – Steward Observatory, Kitt Peak-Spacewatch MPS 144204
2005 10 21.28583 00 20 56.04 +00 26 52.8 21.9   705 – Apache Point MPS 211773
2005 10 21.28667 00 20 56.00 +00 26 52.6 21.2 V 705 – Apache Point MPS 211773
2005 10 23.340377 00 19 40.542 +00 17 28.55 21.30 V 645 – Apache Point-Sloan Digital Sky Survey MPS 390196
2005 10 23.34075 00 19 40.54 +00 17 28.5 21.7   705 – Apache Point MPS 211773
2005 10 23.34157 00 19 40.51 +00 17 28.2 21.1 V 705 – Apache Point MPS 211773
2005 10 23.343849 00 19 40.408 +00 17 27.38 22.33   645 – Apache Point-Sloan Digital Sky Survey MPS 390196
2005 10 26.22725 00 18 01.62 +00 05 07.8 20.9 V G96 – Mt. Lemmon Survey MPS 146161
2005 10 26.23258 00 18 01.47 +00 05 06.4 21.0 V G96 – Mt. Lemmon Survey MPS 146161
2005 10 26.23794 00 18 01.26 +00 05 05.2 21.1 V G96 – Mt. Lemmon Survey MPS 146161
2005 10 26.242687 00 18 01.062 +00 05 03.60 21.35 V 645 – Apache Point-Sloan Digital Sky Survey MPS 390196
2005 10 26.24306 00 18 01.06 +00 05 03.5 21.9   705 – Apache Point MPS 211773
2005 10 26.24330 00 18 01.08 +00 05 03.5 20.7 V G96 – Mt. Lemmon Survey MPS 146161
2005 10 26.24389 00 18 01.03 +00 05 03.3 21.3 V 705 – Apache Point MPS 211773
2005 10 26.246159 00 18 00.948 +00 05 02.81 22.20   645 – Apache Point-Sloan Digital Sky Survey MPS 390196
2005 10 28.21355 00 16 58.44 -00 02 45.4 20.9 V G96 – Mt. Lemmon Survey MPS 147553
2005 10 28.21944 00 16 58.22 -00 02 46.7 21.1 V G96 – Mt. Lemmon Survey MPS 147553
2005 10 28.22536 00 16 58.08 -00 02 47.4 21.8 V G96 – Mt. Lemmon Survey MPS 147553
2005 10 28.23124 00 16 57.86 -00 02 49.1 21.2 V G96 – Mt. Lemmon Survey MPS 147553
2005 10 30.230157 00 15 58.660 -00 10 11.92 21.49 V 645 – Apache Point-Sloan Digital Sky Survey MPS 390196
2005 10 30.23052 00 15 58.66 -00 10 11.9 22.2   705 – Apache Point MPS 211773
2005 10 30.23135 00 15 58.64 -00 10 12.2 21.5 V 705 – Apache Point MPS 211773
2005 10 30.233629 00 15 58.556 -00 10 12.65 22.32   645 – Apache Point-Sloan Digital Sky Survey MPS 390196
2005 10 31.225197 00 15 30.912 -00 13 39.80 21.45 V 645 – Apache Point-Sloan Digital Sky Survey MPS 390196
2005 10 31.22556 00 15 30.91 -00 13 39.8 22.4   705 – Apache Point MPS 211773
2005 10 31.22639 00 15 30.88 -00 13 40.0 21.5 V 705 – Apache Point MPS 211773
2005 10 31.228669 00 15 30.805 -00 13 40.55 22.35   645 – Apache Point-Sloan Digital Sky Survey MPS 390196
2005 11 02.314047 00 14 36.304 -00 20 28.48 21.49 V 645 – Apache Point-Sloan Digital Sky Survey MPS 390196
2005 11 02.31441 00 14 36.30 -00 20 28.5 22.4   705 – Apache Point MPS 211773
2005 11 02.31524 00 14 36.27 -00 20 28.6 21.6 V 705 – Apache Point MPS 211773
2005 11 02.317519 00 14 36.225 -00 20 29.02 22.38   645 – Apache Point-Sloan Digital Sky Survey MPS 390196
2005 11 06.232777 00 13 08.570 -00 31 30.06 21.62 V 645 – Apache Point-Sloan Digital Sky Survey MPS 390196
2005 11 06.23315 00 13 08.57 -00 31 30.0 23.0   705 – Apache Point MPS 211773
2005 11 06.23397 00 13 08.55 -00 31 30.2 21.9 V 705 – Apache Point MPS 211773
2005 11 06.236249 00 13 08.486 -00 31 30.55 22.38   645 – Apache Point-Sloan Digital Sky Survey MPS 390196
2005 11 19.23332 00 10 39.12 -00 51 10.1 23.0   705 – Apache Point MPS 211773
2005 11 19.23414 00 10 39.12 -00 51 10.1 22.0 V 705 – Apache Point MPS 211773
2005 11 25.25424 00 10 44.69 -00 51 31.4 22.9   705 – Apache Point MPS 211773
2005 11 25.25756 00 10 44.69 -00 51 31.2 22.0 V 705 – Apache Point MPS 211773
2005 12 01.21838 00 11 36.02 -00 46 36.8 22.6   705 – Apache Point MPS 211773
2005 12 01.22170 00 11 36.05 -00 46 36.5 22.0 V 705 – Apache Point MPS 211773
2006 12 12.31050 06 14 08.70 +18 29 44.7 21.5 V 691 – Steward Observatory, Kitt Peak-Spacewatch MPS 192246
2006 12 12.32783 06 14 07.80 +18 29 45.5 21.1 V 691 – Steward Observatory, Kitt Peak-Spacewatch MPS 192246
2006 12 12.34525 06 14 06.83 +18 29 45.3 21.1 V 691 – Steward Observatory, Kitt Peak-Spacewatch MPS 192246
2006 12 16.20978 06 10 36.68 +18 29 40.6   691 – Steward Observatory, Kitt Peak-Spacewatch MPS 192246
2006 12 16.23059 06 10 35.49 +18 29 40.8   691 – Steward Observatory, Kitt Peak-Spacewatch MPS 192246
2006 12 16.24797 06 10 34.51 +18 29 40.8   691 – Steward Observatory, Kitt Peak-Spacewatch MPS 192246
2008 03 01.39570 13 08 37.30 -06 06 43.8 20.5 V 691 – Steward Observatory, Kitt Peak-Spacewatch MPS 240752
2008 03 01.41333 13 08 36.95 -06 06 39.9 20.6 V 691 – Steward Observatory, Kitt Peak-Spacewatch MPS 240752
2008 03 01.42859 13 08 36.66 -06 06 36.7 20.4 V 691 – Steward Observatory, Kitt Peak-Spacewatch MPS 240752
2008 03 05.37001 13 07 10.50 -05 51 16.3   691 – Steward Observatory, Kitt Peak-Spacewatch MPS 240752
2008 03 05.38767 13 07 10.03 -05 51 12.2   691 – Steward Observatory, Kitt Peak-Spacewatch MPS 240752
2008 03 05.40533 13 07 09.58 -05 51 07.8   691 – Steward Observatory, Kitt Peak-Spacewatch MPS 240752
2008 03 28.29502 12 52 55.92 -03 45 18.3 20.1 V G96 – Mt. Lemmon Survey MPS 244033
2008 03 28.29962 12 52 55.74 -03 45 16.8 20.0 V G96 – Mt. Lemmon Survey MPS 244033
2008 03 28.30432 12 52 55.48 -03 45 14.9 20.2 V G96 – Mt. Lemmon Survey MPS 244033
2008 03 28.30901 12 52 55.27 -03 45 13.1 20.3 V G96 – Mt. Lemmon Survey MPS 244033
2008 03 29.33028 12 52 08.07 -03 38 44.3 20.0 V G96 – Mt. Lemmon Survey MPS 244711
2008 03 29.33550 12 52 07.86 -03 38 43.0 19.5 V G96 – Mt. Lemmon Survey MPS 244711
2008 03 29.34072 12 52 07.60 -03 38 40.2 20.0 V G96 – Mt. Lemmon Survey MPS 244711
2008 03 29.34600 12 52 07.32 -03 38 38.4 20.0 V G96 – Mt. Lemmon Survey MPS 244711
2008 05 04.21182 12 28 44.36 -00 32 00.8 20.2 V G96 – Mt. Lemmon Survey MPS 248975
2008 05 04.21623 12 28 44.25 -00 31 59.9 20.4 V G96 – Mt. Lemmon Survey MPS 248975
2008 05 04.22068 12 28 44.14 -00 31 59.4 20.4 V G96 – Mt. Lemmon Survey MPS 248975
2008 05 04.22513 12 28 44.07 -00 31 58.6 20.5 V G96 – Mt. Lemmon Survey MPS 248975
2008 06 03.17941 12 28 37.84 -00 23 26.0 20.9 V G96 – Mt. Lemmon Survey MPS 251356
2008 06 03.18849 12 28 38.10 -00 23 26.9 20.7 V G96 – Mt. Lemmon Survey MPS 251356
2008 06 03.19745 12 28 38.20 -00 23 28.2 21.2 V G96 – Mt. Lemmon Survey MPS 251356
2008 06 03.20639 12 28 38.35 -00 23 29.0 21.0 V G96 – Mt. Lemmon Survey MPS 251356
2010 10 15.350674 02 21 18.098 +10 46 17.41 21.08 i F51 – Pan-STARRS 1, Haleakala MPS 365172
2010 10 15.361299 02 21 17.590 +10 46 14.29 20.97 i F51 – Pan-STARRS 1, Haleakala MPS 365172
2010 10 19.23019 02 18 16.16 +10 26 53.1 20.4 V G96 – Mt. Lemmon Survey MPS 353485
2010 10 19.23673 02 18 15.80 +10 26 51.1 20.5 V G96 – Mt. Lemmon Survey MPS 353485
2010 10 19.24324 02 18 15.48 +10 26 49.8 20.2 V G96 – Mt. Lemmon Survey MPS 353485
2010 10 19.24983 02 18 15.15 +10 26 46.9 20.9 V G96 – Mt. Lemmon Survey MPS 353485
2010 10 30.26936 02 09 12.67 +09 30 56.5 20.2 V G96 – Mt. Lemmon Survey MPS 355074
2010 10 30.27572 02 09 12.34 +09 30 54.5 20.0 V G96 – Mt. Lemmon Survey MPS 355074
